星链-35068 (STARLINK-35068)

导读

STARLINK-35068是美国太空探索技术公司Starlink星链互联网卫星星座的一员,于2025年9月3日由美国发射升空。该卫星属于星链低轨卫星组网项目,旨在为全球范围提供高速低延迟的宽带互联网服务,其入轨进一步扩充了星链星座的覆盖能力与服务容量,延续了美国大规模低轨卫星星座的部署节奏。

Basic Information
目录编号:
65438
目录名称:
STARLINK-35068
国际标识:
2025-194E
轨道中心:
EARTH
卫星名称:
星链-35068
卫星全名:
星链-35068 (STARLINK-35068)
卫星状态:
在轨 (已飞行283 天)
发射日期:
2025-09-03 UTC
国别 :
美国 (US)
星等 :
--
Orbit Information
数据来源 国际轨道数据 AOE轨道数据
星历时间 2026-06-13T11:04:36+0800
14小时前
查看轨道信息
2026-06-07T09:00:00+0800
6天前
查看轨道信息
半长轴 6927.631km 6927.608km
偏心率 0.0002478 0.0001649
轨道倾角 97.368° 97.397°
近地点辐角 86.903° 88.329°
升交点赤经 17.527° 11.704°
平近点角 273.248° 61.447°
近地点 547.777km 548.328km
远地点 551.211km 550.614km
周期 95.639分钟 95.639分钟
每日圈数 15.056557 15.056632
Detailed Information
固有亮度:
5
最大亮度:
2.5
卫星平台:
Starlink V1.0
覆盖范围:
全球
运营商:
太空探索技术公司
运营商所在国:
美国
制造商(研发单位):
太空探索技术公司
制造商所在国:
美国
使用方式:
暂无
Satellite Introduction
Starlink 计划是 SpaceX 推出的全球卫星互联网项目,通过发射低轨道卫星,为全球尤其是偏远地区提供高速、低延迟的互联网服务。自 2019 年起,Starlink 已部署数千颗卫星,旨在缩小全球数字鸿沟,推动互联网普及。该项目还为军事、航空等行业提供通信支持,带来广泛经济效益。
2D Orbit Map
3D Orbit Map
Orbit Altitude Analysis Chart
Orbit Inclination Analysis Chart
Orbit Comprehensive Analysis Chart
View Comprehensive Chart